Miscellaneous Local Product
Issued by NWS North Platte, NE

Home | Current Version | Previous Version | Graphics & Text | Print | Product List | Glossary On
Versions: 1 2 3 4 5 6 7 8 9 10 11 12 13 14 15 16 17 18 19 20 21 22 23 24 25 26 27 28 29 30 31 32 33 34 35 36 37 38 39 40 41 42 43 44 45 46 47 48 49 50
000
AXUS43 KLBF 222210
MISLBF


WESTERN AND NORTH CENTRAL NEBRASKA HOURLY WEATHER ROUNDUP
NATIONAL WEATHER SERVICE NORTH PLATTE NE
400 PM CST MON JAN 22 2018

NOTE: "FAIR" INDICATES FEW OR NO CLOUDS BELOW 12,000 FEET WITH NO
SIGNIFICANT WEATHER AND/OR OBSTRUCTIONS TO VISIBILITY.

NOTE: STATIONS NOT REPORTING VARIABLES SUCH AS SKY/WEATHER OR
PRESSURE ARE PROVIDED BY RAWS AND APRS NETWORKS AND ARE NOT UNDER
NATIONAL WEATHER SERVICE QUALITY CONTROL.

...OBSERVATIONS IN AND NEAR THE EASTERN PANHANDLE OF NEBRASKA...

CITY           SKY/WX    TMP DP  RH WIND       PRES   REMARKS
PINE RIDGE     SUNNY     26  17  68 W8        29.98S WCI  18
GORDON         FAIR      29  17  60 NW10      29.95R WCI  19
CHADRON        SUNNY     23  14  68 W7        30.01R WCI  15
ALLIANCE       SUNNY     30  16  56 NW13      29.96R WCI  20
SIDNEY         SUNNY     32  20  61 NW22      29.96R WCI  19
CRESCENT LAKE    N/A     31  19  59 NW14G23     N/A  WCI  21
$$

...OBSERVATIONS IN NORTHERN NEBRASKA AND FAR SOUTHERN SOUTH DAKOTA...

CITY           SKY/WX    TMP DP  RH WIND       PRES   REMARKS
WINNER         MIX PCPN  27  23  85 N14       29.95R FOG     WCI  16
VALENTINE      SUNNY     31  21  66 NW14      29.93R WCI  21
AINSWORTH      SUNNY     29  24  82 N22       29.90R WCI  15
O`NEILL        CLOUDY    25  23  93 N21G32    29.85R WCI  10
THEDFORD       SUNNY     31  22  70 NW16G22   29.91R WCI  20
BROKEN BOW     PTSUNNY   32  22  66 NW25G32   29.85R WCI  19
ORD            CLOUDY    30  22  72 N21       29.81R WCI  17
ALBION         SNOW      26  23  88 N30G39    29.77R VSB 1/2 WCI   9
VALENTINE NWR    N/A     28  23  81 NW16        N/A  WCI  16
HALSEY           N/A     31  21  66 NW14G26     N/A  WCI  21
BUTTE            N/A     23  21  93 N24G35      N/A  WCI   7
CHAMBERS         N/A     26  19  73 N12         N/A  WCI  16
EWING            N/A     23  22  94 N24         N/A  WCI   7
$$

...OBSERVATIONS IN SOUTHWEST NEBRASKA AND FAR NORTHEAST COLORADO...

CITY           SKY/WX    TMP DP  RH WIND       PRES   REMARKS
WRAY           FAIR      34  19  55 NW20G28   29.96R WCI  22
HOLYOKE        FAIR      36  19  51 NW23G30   29.95R WCI  24
IMPERIAL       MIX PCPN  31  20  63 NW18      29.94R WCI  19
OGALLALA       SUNNY     33  20  59 NW17      29.95R WCI  22
NORTH PLATTE   SUNNY     33  21  61 NW17      29.91R WCI  22
MCCOOK         SUNNY     33  23  66 NW23      29.91R WCI  21
LEXINGTON      PTSUNNY   32  25  74 NW14      29.87R WCI  22
STAPLETON        N/A     29  22  75 NW6G17      N/A  WCI  23
GOTHENBURG       N/A     32  23  69 NW15        N/A  WCI  22
CALLAWAY         N/A     28  24  86 NW18        N/A  WCI  15
$$

...OBSERVATIONS IN CENTRAL LINCOLN COUNTY AREA...

CITY           SKY/WX    TMP DP  RH WIND       PRES   REMARKS
N.P. AIRPORT   SUNNY     33  21  61 NW17      29.91R WCI  22
N.P. DOWNTOWN    N/A     32  22  67 NW7G14      N/A  WCI  26
N.P. HILLCREST   N/A     32  22  68 NW20G26     N/A  WCI  20
$$

...SOME OBSERVATIONS FROM AROUND THE REGION...

CITY           SKY/WX    TMP DP  RH WIND       PRES   REMARKS
DENVER         MOSUNNY   41  11  29 W5        30.00R
BERTHOUD PASS  FAIR       1  -9  60 NW29G37   29.98S WCI -24
GRAND JUNCTION MOSUNNY   28  21  75 N6        30.27S WCI  22
LARAMIE        SUNNY     21   9  59 E9        30.01S WCI  11
CHEYENNE       SUNNY     29  11  47 MISG      29.99R
CASPER         SUNNY     23  14  68 SW23      30.07S WCI   7
BISMARCK       CLOUDY    23  21  92 NE3       30.02R FOG
RAPID CITY     SUNNY     40  17  39 N24       29.95R WCI  29
PIERRE         CLOUDY    24  23  96 N13       29.97R WCI  12
SIOUX FALLS    FLURRIES  28  25  88 N30G39    29.77R WCI  12
OMAHA          LGT SNOW  31  29  92 N35G46    29.58R VSB 1   WCI  15
GRAND ISLAND   LGT SNOW  28  24  85 NW22G31   29.78R FOG     WCI  14
SCOTTSBLUFF    SUNNY     32  19  58 NW18      30.00R WCI  20
KANSAS CITY    CLOUDY    33  31  92 W14       29.49R WCI  23
HILL CITY      SUNNY     36  25  64 NW24G38   29.89R WCI  24
WICHITA        PTSUNNY   42  26  53 NW31G46   29.77R
DODGE CITY     SUNNY     46  17  31 NW33G47   29.94R
OKLAHOMA CITY  CLOUDY    47  24  40 NW24G32   29.96R
DALLAS         MOSUNNY   61  19  19 NW28G35   29.99R
AMARILLO       SUNNY     50  -1  12 NW18G29   30.06R
$$




USA.gov is the U.S. government's official web portal to all federal, state and local government web resources and services.